Elat, Israel

7:10 AM IST on December 04, 2016 (GMT +0200)
Eilat

Weather History for LLET - January, 2013

Change the Weather History Date:

Tuesday, January 8, 2013

  Actual Average Record
Temperature  
Mean Temperature 61 °F -  
Max Temperature 68 °F 68 °F 82 °F (1997)
Min Temperature 54 °F 50 °F 42 °F (2002)
Degree Days  
Heating Degree Days 4    
Growing Degree Days 11 (Base 50)    
Moisture  
Dew Point 37 °F    
Average Humidity 35    
Maximum Humidity 48    
Minimum Humidity 21    
Precipitation  
Precipitation 0.00 in - - ()
Sea Level Pressure  
Sea Level Pressure 29.95 in    
Wind  
Wind Speed 7 mph ()    
Max Wind Speed 20 mph    
Max Gust Speed 31 mph    
Visibility 6.8 miles    
Events      
Averages and records for this station are not official NWS values.
T = Trace of Precipitation, MM = Missing Value Source: Averaged Metar Reports

Daily Weather History Graph

Daily Weather History Graph

Search for Another Location

Airport or City:

Trip Planner

Search our weather history database for the weather conditions in past years. The results will help you decide how hot, cold, wet, or windy it might be!

Date:

Astronomy

Jan. 08, 2013 Rise Set
Actual Time 6:36 AM IST 4:57 PM IST
Civil Twilight 6:10 AM IST 5:23 PM IST
Nautical Twilight 5:40 AM IST 5:53 PM IST
Astronomical Twilight 5:11 AM IST 6:22 PM IST
Moon 2:47 AM IST (1/8) 1:39 PM IST (1/8)
Length of Visible Light 11h 13m
Length of Day
10h 21m
Waning Crescent, 16% of the Moon is Illuminated
Jan 8
Waning Crescent
Jan 11
New
Jan 19
First Quarter
Jan 27
Full
Feb 3
Last Quarter

Hourly Weather History & Observations

Time (IST) Temp. Dew Point Humidity Pressure Visibility Wind Dir Wind Speed Gust Speed Precip Events Conditions
2:00 AM 56 °F 37 °F 36% 30.05 in 9 mi West 2.3 mph - -   Clear
5:50 AM 57.2 °F 37.4 °F 48% 30.01 in 6.2 mi West 3.5 mph - N/A   Partly Cloudy
6:50 AM 57.2 °F 37.4 °F 48% 30.01 in - West 4.6 mph - N/A   Clear
7:50 AM 59.0 °F 37.4 °F 45% 30.04 in - WSW 6.9 mph - N/A   Clear
8:00 AM 58 °F 36 °F 32% 30.04 in - SW 3.5 mph - -  
8:50 AM 60.8 °F 35.6 °F 39% 30.04 in - SSW 6.9 mph - N/A   Clear
9:50 AM 62.6 °F 37.4 °F 39% 30.04 in - WSW 6.9 mph - N/A   Clear
10:50 AM 66.2 °F 41.0 °F 40% 29.98 in - SSW 9.2 mph - N/A   Clear
11:50 AM 66.2 °F 39.2 °F 37% 29.95 in - South 11.5 mph - N/A   Clear
12:50 PM 66.2 °F 39.2 °F 37% 29.92 in - South 9.2 mph - N/A   Clear
1:50 PM 66.2 °F 39.2 °F 37% 29.92 in - South 9.2 mph - N/A   Clear
2:00 PM 68 °F 38 °F 22% 29.91 in - SSW 8.1 mph - -  
2:50 PM 68.0 °F 41.0 °F 37% 29.89 in - SSW 12.7 mph - N/A   Clear
3:50 PM 68.0 °F 39.2 °F 35% 29.89 in - SSW 9.2 mph - N/A   Clear
4:50 PM 68.0 °F 33.8 °F 28% 29.89 in 6.2 mi SW 10.4 mph - N/A   Mostly Cloudy
5:50 PM 68.0 °F 33.8 °F 28% 29.89 in 6.2 mi SW 16.1 mph - N/A   Mostly Cloudy
6:38 PM 68.0 °F 33.8 °F 28% 29.89 in 6.2 mi SW 19.6 mph 31.1 mph N/A   Mostly Cloudy
6:50 PM 68.0 °F 33.8 °F 28% 29.89 in 6.2 mi SW 19.6 mph 31.1 mph N/A   Mostly Cloudy
7:50 PM 68.0 °F 39.2 °F 35% 29.89 in 6.2 mi SSW 19.6 mph 31.1 mph N/A   Mostly Cloudy
8:00 PM 66 °F 36 °F 21% 29.89 in 9 mi SW 9.2 mph - -   Mostly Cloudy
8:50 PM 66.2 °F 39.2 °F 37% 29.89 in 6.2 mi SSW 16.1 mph 27.6 mph N/A   Mostly Cloudy
9:50 PM 66.2 °F 35.6 °F 32% 29.89 in 6.2 mi SW 18.4 mph 29.9 mph N/A   Mostly Cloudy